Hourly Data Report for October 17, 2016

All times are specified in Local Standard Time (LST). Add 1 hour to adjust for Daylight Saving Time where and when it is observed.

POND INLET A
NUNAVUT

72°41'22.000" N
77°58'08.000" W
61.60 m
2403206
71095
YIO

Related Data

No related data is available for this station

Download Data

Hourly Data (October 2016)
Hourly Data Report for October 17, 2016
Temp Definition
°C
Dew Point Temp Definition
°C
Rel Hum Definition
%
Wind Dir Definition
10's deg

Wind Spd Definition
km/h
Visibility Definition
km
Stn Press Definition
kPa
Hmdx Definition


Wind Chill Definition


Weather Definition


TIME
00:00 Legend Double Dagger -8.5 -9.7 91 10 13 16.1 100.17   -14 LegendNANA
01:00 Legend Double Dagger -7.2 -10.6 77 18 26 16.1 100.13   -15 LegendNANA
02:00 Legend Double Dagger -8.1 -9.0 93 26 26 2.0 100.19   -16 Snow
03:00 Legend Double Dagger -7.6 -10.6 79 23 18 16.1 100.21   -14 Snow
04:00 Legend Double Dagger -9.1 -13.1 73 20 30 16.1 100.21   -18 LegendNANA
05:00 Legend Double Dagger -8.5 -13.0 70 20 24 16.1 100.22   -17 LegendNANA
06:00 Legend Double Dagger -9.3 -12.0 81 17 21 16.1 100.20   -17 Snow
07:00 Legend Double Dagger -9.4 -13.9 70 20 26 16.1 100.21   -18 LegendNANA
08:00 Legend Double Dagger -10.2 -13.2 79 17 21 16.1 100.19   -18 LegendNANA
09:00 Legend Double Dagger -9.2 -10.7 89 19 30 1.2 100.22   -18 Snow
10:00 Legend Double Dagger -11.0 -14.3 77 20 32 16.1 100.27   -21 LegendNANA
11:00 Legend Double Dagger -10.6 -14.1 76 18 30 16.1 100.33   -20 LegendNANA
12:00 Legend Double Dagger -10.1 -13.4 77 20 34 16.1 100.32   -20 LegendNANA
13:00 Legend Double Dagger -13.0 -16.7 74 18 24 16.1 100.38   -22 LegendNANA
14:00 Legend Double Dagger -10.5 -12.9 83 20 22 2.8 100.44   -19 Snow
15:00 Legend Double Dagger -10.2 -12.4 84 22 37 4.0 100.44   -21 Snow
16:00 Legend Double Dagger -10.5 -12.3 87 21 24 4.8 100.50   -19 Snow
17:00 Legend Double Dagger -10.4 -11.8 90 23 21 1.2 100.53   -19 Snow
18:00 Legend Double Dagger -10.7 -12.8 85 27 13 16.1 100.58   -17 LegendNANA
19:00 Legend Double Dagger -13.3 -14.9 88 22 15 16.1 100.65   -21 LegendNANA
20:00 Legend Double Dagger -13.4 -15.1 87 19 5 16.1 100.71   -17 LegendNANA
21:00 Legend Double Dagger -13.8 -16.1 83 16 17 16.1 100.74   -22 LegendNANA
22:00 Legend Double Dagger -12.4 -14.3 86 16 21 16.1 100.75   -21 LegendNANA
23:00 Legend Double Dagger -11.2 -12.5 90 21 13 1.6 100.77   -18 Snow

Notes on Data Quality.

Legend

  • E = Estimated
  • M = Missing
  • NA = Not Available
  • ‡ = Partner data that is not subject to review by the National Climate Archives
Date modified: